Torna al catalogo

FENGYUN 1C DEB

AttivoSSO
NORAD 30677·DEBRIS·🇨🇳 China

Lanciato May 10, 1999 da Taiyuan Satellite Launch Center

Loading…

Prossimi Passaggi (prossime 24 ore)

TLE

AggiornatoSource: Space-Track

Epoca: Sep 12, 2026, 01:56 UTC

1 30677U 99025AQK 26255.08110689  .00002077  00000-0  65843-3 0  9996
2 30677  98.2343 294.6130 0066309 101.7796 288.7825 14.39775711 19009

Traccia FENGYUN 1C DEB in tempo reale con AllMySat

Download on the App Store